カタログに戻る

COSMOS 1275 DEB

LostPO
NORAD 42232·DEBRIS·🇷🇺 Russia

打ち上げ Jun 4, 1981 から Plesetsk Cosmodrome

Loading…

次のパス (今後24時間)

TLE

古いSource: Space-Track

元期: May 7, 2024, 12:57 UTC

1 42232U 81053UY  24128.53974137  .00002355  00000-0  29874-2 0  9993
2 42232  83.0106  57.1745 0187439  58.7494 303.1863 13.56008925503305

AllMySatでCOSMOS 1275 DEBをリアルタイム追跡

Download on the App Store